Location: Hanston High School
(38.1235°N, 99.7176°W)
Time: 12:44:44
(UTC+00:00)

Daily predictions for brighter satellites

Satellite Brightness Start Highest point End
(mag) Time Altitude Azimuth Time Altitude Azimuth Time Altitude Azimuth
Cosmos 1315 Rocket 3.2 12:01:46 10° S 12:05:36 62° E 12:09:28 10° NNE
Haruka 4.4 12:04:47 26° WSW 12:07:33 45° S 12:23:30 10° ESE
Lacrosse 4 Rocket 3.5 12:11:21 15° NNW 12:11:21 15° NNW 12:12:28 10° N
ATLAS 5 CENTAUR R/B 2.0 12:12:26 45° WSW 12:12:51 48° SW 12:19:22 10° SSE
Nadezhda 4 Rocket 4.2 12:07:35 10° NNW 12:13:20 44° W 12:19:04 10° SSW
YAOGAN 6 3.4 12:10:27 10° NNE 12:14:05 53° E 12:17:40 10° S
Cosmos 1346 Rocket 2.9 12:10:33 10° N 12:14:33 75° E 12:18:32 10° SSE
FALCON 9 DEB 4.5 12:16:17 23° N 12:16:17 23° N 12:18:08 10° NNE
ERBS 2.4 12:16:23 51° NW 12:16:23 51° NW 12:19:31 10° NNE
Cosmos 1606 Rocket 3.7 12:12:12 10° S 12:16:28 71° E 12:20:48 10° NNE
Cosmos 1340 4.0 12:18:17 24° SW 12:18:17 24° SW 12:20:13 10° SSW
BREEZE-M (TANK) 2.3 12:18:06 35° NNE 12:18:06 35° NNE 12:19:57 10° ESE
ATLAS 3B R/B 4.4 12:13:05 10° S 12:18:46 32° ESE 12:24:31 10° NE
USA 238 DEB 4.0 12:19:47 21° WSW 12:23:49 43° NW 12:30:18 10° NNE
USA 238 3.9 12:19:50 21° WSW 12:23:55 44° NW 12:30:25 10° NNE
Cosmos 1626 Rocket 4.4 12:24:36 29° W 12:24:36 29° W 12:28:20 10° SSW
Meteor 1-11 4.1 12:23:05 10° NNW 12:28:39 71° W 12:34:12 10° S
Cosmos 1634 Rocket 3.9 12:22:40 10° SSW 12:28:45 62° W 12:34:54 10° N
Cosmos 2150 Rocket 4.2 12:23:54 11° NNW 12:28:59 55° WSW 12:34:16 10° S
Cosmos 2297 3.7 12:25:44 10° NNW 12:31:24 63° WSW 12:37:02 10° S
deb Chang Zheng 4 4.1 12:32:11 10° N 12:36:00 33° WNW 12:39:48 10° SW
Cosmos 1689 Rocket 2.0 12:38:54 10° S 12:41:44 54° W 12:44:35 10° NNW
Cosmos 2098 Rocket 3.2 12:39:10 10° NNW 12:44:14 59° W 12:48:12 10° S
SKYMED 2 4.5 12:41:02 10° SSW 12:44:42 27° W 12:48:25 10° NW
PSLV R/B 3.8 12:42:55 10° N 12:46:58 70° WNW 12:51:02 10° SSW
Cosmos 773 Rocket 4.4 12:42:39 10° S 12:47:51 68° ESE 12:53:02 10° NNE
SL-19 R/B 4.4 12:44:45 10° NNE 12:48:09 60° ESE 12:51:08 10° S
CZ-2C R/B 2.7 12:45:24 14° WSW 12:48:14 28° SSW 12:51:47 10° SE
TIMED 4.4 12:44:04 10° SSW 12:48:25 70° WNW 12:52:47 10° NNE
SL-4 R/B 4.1 12:47:06 11° NNW 12:48:42 13° N 12:50:34 10° NNE
Cosmos 2026 Rocket 4.2 12:42:44 10° NNW 12:48:52 51° W 12:54:59 10° SSW
Cosmos 1758 Rocket 4.1 12:47:02 10° NNW 12:51:10 37° W 12:55:15 10° SSW
Envisat 3.0 12:46:58 10° N 12:51:57 57° WNW 12:56:55 10° SSW
Cosmos 1603 3.7 12:46:32 10° SSW 12:52:08 88° WNW 12:57:49 10° NNE
BREEZE-M DEB (TANK) 2.6 12:47:46 10° WSW 12:52:30 49° NW 12:54:42 10° NE
ERS-2 3.0 12:50:01 10° SSW 12:53:11 28° W 12:56:21 10° NW
Cosmos 1125 Rocket 3.9 12:49:27 10° NNW 12:54:27 43° WSW 12:59:27 10° S
Cosmos 1726 Rocket 3.8 12:56:07 10° SSW 13:00:14 44° W 13:04:23 10° N
Atlas Centaur 2 4.2 12:56:35 10° WSW 13:02:46 29° SSW 13:09:38 10° SE
In-Cosmos 22 Rocket 4.1 12:57:42 10° N 13:03:08 86° W 13:08:27 10° S
Cosmos 2058 Rocket 3.0 13:01:18 10° SSW 13:05:40 68° W 13:10:05 10° N
CZ-2C R/B 2.7 13:01:47 10° SSE 13:07:02 87° ENE 13:12:26 10° NNW
CZ-4B DEB 4.2 13:01:56 10° N 13:07:26 63° WNW 13:12:53 10° SSW
Cosmos 1939 Rocket 4.2 13:04:14 10° NNE 13:07:56 42° E 13:11:35 10° S
Cosmos 1943 Rocket 2.5 13:02:54 10° NW 13:08:20 47° WSW 13:13:43 10° S
H-2A R/B 4.2 13:09:04 10° NNW 13:11:30 17° WNW 13:13:58 10° WSW
Meteor 2-10 Rocket 3.8 13:06:07 10° SSW 13:11:55 75° W 13:17:42 10° N
Cosmos 1455 2.2 13:09:22 10° S 13:13:05 88° E 13:16:51 10° N
Cosmos 1825 3.6 13:09:31 10° N 13:13:08 42° E 13:16:43 10° SSE
DMSP B5D2-2 4.5 13:08:46 10° SSE 13:13:58 70° ENE 13:19:14 10° N
Cosmos 2263 4.4 13:09:47 10° NNW 13:15:29 79° ENE 13:21:13 10° SSE
H-2A R/B 2.7 13:13:27 10° N 13:17:55 61° WNW 13:22:19 10° SSW
MOS 1-B 4.4 13:12:39 10° N 13:18:21 62° WNW 13:24:01 10° SSW
Cosmos 1184 Rocket 4.0 13:15:23 10° N 13:18:32 45° E 13:21:40 10° SSE
